[[{"header":{"parameterUnit":"m.s-1","parameterCategory":1,"la1":30.2991,"la2":30.254,"lo1":-89.0895,"lo2":-89.0444,"dy":0.0017,"dx":0.0017,"nx":28,"ny":28,"refTime":"2025-07-23T03:00:00:Z","depth":0,"parameterNumber":2,"parameterNumberName":"U-component_of_WINDS"},"data":[0,0,0,0,0,0,0,0,0,0,0,0,0,0,0,0,0,0,0,0,0,0,0,0,0,0,0,0,0,0,0,0,0,0,0,0,0,0,0,0,0,0,0,0,0,0,0,0,0,0,0,0,0,0,0,0,0,0,2.7692,2.7694,0,2.7815,2.7817,2.7818,2.776,2.7757,2.7754,2.7751,2.7883,2.7889,2.7895,0,0,0,0,0,0,0,0,0,0,0,0,0,2.7413,2.7418,2.7692,2.7694,2.7695,2.7815,2.7817,2.7818,2.7761,2.7757,2.7753,2.775,2.788,2.7888,2.7896,0,0,0,0,0,0,0,0,0,0,0,0,0,2.7535,2.742,2.7692,2.7681,2.7681,2.7815,2.7817,2.7819,2.7762,2.7757,2.7752,2.7748,2.7878,2.7887,2.7897,2.805,0,0,2.7926,2.793,0,0,0,0,0,0,0,0,2.7528,2.7545,2.7681,2.7682,2.7682,2.7767,2.7766,2.7897,2.7763,2.7731,2.7751,2.7746,2.7848,2.786,2.7894,2.8056,2.8062,2.7927,2.7933,2.7937,2.794,0,0,0,0,0,0,0,2.752,2.754,2.7741,2.7683,2.7684,2.7671,2.7684,2.7791,2.7815,2.7734,2.773,2.7745,2.7848,2.7885,2.7896,2.8064,2.7927,2.7935,2.7941,2.7945,2.8359,2.8364,0,0,0,0,0,0,2.7511,2.7533,2.7737,2.7745,2.7592,2.768,2.7694,2.7745,2.7813,2.7819,2.7749,2.7742,2.787,2.7885,2.7901,2.8084,2.7937,2.7946,2.7951,2.8354,2.836,2.8365,0,0,0,0,0,0,2.7505,2.753,2.7732,2.7638,2.7663,2.769,2.7748,2.775,2.7786,2.7825,2.7829,2.7781,2.7867,2.7887,2.8013,2.8088,2.795,2.7959,2.8347,2.8355,2.8363,2.8452,0,0,0,0,0,0,2.7497,2.7528,2.7585,2.7639,2.7668,2.7841,2.7753,2.7756,2.7802,2.7794,2.7856,2.7862,2.7865,2.7999,2.8023,2.8098,2.7967,2.8341,2.8351,2.836,2.8442,2.8462,2.8478,0,0,0,0,0,2.7487,2.7606,2.7588,2.7613,2.7739,2.7845,2.7861,2.7861,2.7809,2.7867,2.7892,2.786,2.8076,2.8012,2.8038,2.8118,2.8336,2.8348,2.8359,2.8434,2.8458,2.8478,0,0,0,0,0,0,2.7561,2.7613,2.7593,2.7733,2.7785,2.7835,2.7908,2.7886,2.7955,2.7945,2.7943,2.7957,2.8087,2.8116,2.8044,2.8271,2.8198,2.8216,2.8246,2.8269,2.8287,2.8276,2.7975,0,0,0,0,0,2.7593,2.7673,2.7715,2.7834,2.7861,2.7881,2.7927,2.7922,2.7976,2.7998,2.8032,2.8087,2.8168,2.822,2.8297,2.8447,2.846,2.8515,2.8533,2.8548,2.8563,2.8644,2.8669,2.8404,2.8404,2.8404,0,0,2.7661,2.77,2.775,2.785,2.789,2.7973,2.7899,2.7991,2.8054,2.8013,2.8132,2.816,2.8222,2.836,2.8423,2.8388,2.8639,2.8563,2.8574,2.8581,2.8659,2.8684,2.8706,2.8412,2.8411,2.8409,0,0,2.7827,2.7864,2.7967,2.8008,2.8069,2.8081,2.8106,2.816,2.8176,2.8296,2.8267,2.8343,2.8481,2.8526,2.8567,2.8752,2.8725,2.8777,2.887,2.895,2.8971,2.8989,2.9054,2.9077,2.8792,2.8792,2.8792,0,2.7904,2.8027,2.8023,2.8117,2.8163,2.8128,2.8233,2.8274,2.8357,2.839,2.8349,2.8522,2.8561,2.871,2.8755,2.879,2.8819,2.8769,2.8968,2.8986,2.9003,2.9065,2.909,2.8798,2.8797,2.8797,2.8796,0,2.8118,2.8205,2.8281,2.836,2.8414,2.8513,2.8526,2.8582,2.8574,2.8591,2.8714,2.8761,2.8845,2.8881,2.8874,2.9029,2.9005,2.8967,2.8893,2.9034,2.9092,2.9116,2.8806,2.8804,2.8802,2.8801,0,0,2.8331,2.8407,2.8435,2.8471,2.8536,2.8603,2.8702,2.8783,2.8831,2.889,2.8973,2.9092,2.9056,2.9103,2.9102,2.9172,2.9314,2.9125,2.9126,2.9157,2.9487,2.9513,2.954,2.9298,2.9302,2.9306,2.9481,0,2.85,2.867,2.867,2.8828,2.8908,2.8878,2.8964,2.9014,2.9034,2.9106,2.9128,2.9211,2.9159,2.9187,2.9256,2.9282,2.938,2.927,2.9375,2.9379,2.9357,2.9571,2.9599,2.9762,2.9503,2.9507,2.951,0,2.8718,2.8783,2.8948,2.9001,2.9035,2.9112,2.9187,2.9256,2.9313,2.9323,2.9375,2.9363,2.9466,2.9391,2.9532,2.9458,2.9501,2.9521,2.9528,2.9535,2.9451,2.9583,2.9814,2.9837,2.9546,2.9543,2.9541,0,2.8855,2.8984,2.9099,2.9131,2.9196,2.9251,2.9282,2.9334,2.9383,2.9449,2.9481,2.956,2.9602,2.9664,2.9674,2.9619,2.9815,2.9742,2.9826,2.9826,2.9866,2.9863,3.0106,2.9899,2.9898,2.9898,2.9897,0,2.9042,2.9144,2.9161,2.9231,2.9345,2.9347,2.946,2.9486,2.9533,2.9609,2.959,2.9662,2.9672,2.9748,2.9757,2.9871,2.9892,2.9902,2.9903,2.9903,2.9901,2.9929,2.9918,2.9904,2.9903,2.9902,2.9901,0,2.9212,2.9228,2.9351,2.9403,2.9419,2.9501,2.9546,2.9614,2.9633,2.973,2.9753,2.9782,2.987,2.9886,2.9991,2.9997,3.0133,3.0124,3.0113,3.0111,3.0193,3.0185,3.046,3.0496,3.0268,3.027,3.0272,0,2.9329,2.9406,2.9467,2.9515,2.9548,2.9628,2.9677,2.9683,2.9736,2.9807,2.9867,2.9953,3.0021,3.0163,3.0195,3.0275,3.0266,3.0357,3.0278,3.0275,3.0265,3.0259,3.0266,3.0371,3.0374,3.0376,3.0378,0,2.9534,2.9538,2.9609,2.9684,2.9743,2.9803,2.9859,2.9901,2.9914,2.9975,3.0064,3.0117,3.0223,3.0308,3.0388,3.0421,3.0402,3.0403,3.0426,3.0425,3.0415,3.0419,3.0152,3.0396,3.0394,3.0393,3.0392,3.0391,2.9679,2.9747,2.98,2.988,2.9923,2.9976,3.0043,3.0069,3.0143,3.0228,3.0228,3.0325,3.0382,3.0487,3.0526,3.0603,3.0574,3.0608,3.0616,3.0624,3.063,3.0405,3.0618,3.0617,3.0617,3.0616,3.0616,0,2.9882,2.9915,2.9989,3.0067,3.0131,3.0107,3.0169,3.0224,3.0309,3.0363,3.0431,3.0533,3.0616,3.0655,3.0737,3.0791,3.0784,3.0812,3.0807,3.0815,3.0653,3.0623,3.0816,3.0816,3.0816,3.0816,3.0816,3.0816,2.9994,3.0106,3.0117,3.0251,3.0284,3.0377,3.0414,3.0464,3.0507,3.0621,3.069,3.0714,3.0762,3.0848,3.0923,3.0932,3.0963,3.0995,3.1,3.0847,3.0826,3.0807,3.0779,3.1002,3.1002,3.1155,3.1157,3.1158]},{"header":{"parameterUnit":"m.s-1","parameterCategory":1,"la1":30.2991,"la2":30.254,"lo1":-89.0895,"lo2":-89.0444,"dy":0.0017,"dx":0.0017,"nx":28,"ny":28,"refTime":"2025-07-23T03:00:00:Z","depth":0,"parameterNumber":3,"parameterNumberName":"V-component_of_WINDS"},"data":[0,0,0,0,0,0,0,0,0,0,0,0,0,0,0,0,0,0,0,0,0,0,0,0,0,0,0,0,0,0,0,0,0,0,0,0,0,0,0,0,0,0,0,0,0,0,0,0,0,0,0,0,0,0,0,0,0,0,3.187,3.187,0,3.1922,3.1923,3.1923,3.1875,3.1873,3.1871,3.187,3.1923,3.1926,3.1929,0,0,0,0,0,0,0,0,0,0,0,0,0,3.1725,3.1728,3.187,3.187,3.1871,3.1922,3.1923,3.1923,3.1876,3.1873,3.1871,3.1869,3.1922,3.1925,3.1929,0,0,0,0,0,0,0,0,0,0,0,0,0,3.1784,3.1729,3.187,3.1853,3.1852,3.1922,3.1923,3.1923,3.1876,3.1873,3.187,3.1868,3.192,3.1925,3.193,3.2018,0,0,3.1945,3.1947,0,0,0,0,0,0,0,0,3.1781,3.1789,3.1855,3.1855,3.1854,3.1889,3.1891,3.1955,3.1877,3.1867,3.187,3.1866,3.1914,3.1919,3.1935,3.202,3.2022,3.1945,3.1948,3.195,3.1951,0,0,0,0,0,0,0,3.1777,3.1787,3.189,3.1856,3.1855,3.1842,3.1847,3.1903,3.1906,3.1868,3.1864,3.1871,3.1913,3.1931,3.1936,3.2023,3.1945,3.1949,3.1952,3.1954,3.2177,3.218,0,0,0,0,0,0,3.1774,3.1784,3.1889,3.1892,3.1809,3.1847,3.1853,3.1881,3.1905,3.1906,3.1874,3.1869,3.1924,3.193,3.1938,3.2038,3.195,3.1954,3.1957,3.2174,3.2178,3.2181,0,0,0,0,0,0,3.1772,3.1784,3.1886,3.1837,3.1849,3.1853,3.1884,3.1883,3.1901,3.191,3.191,3.1891,3.1922,3.1931,3.1997,3.2039,3.1957,3.1961,3.217,3.2175,3.2179,3.2242,0,0,0,0,0,0,3.1768,3.1784,3.1818,3.1838,3.1852,3.1946,3.1887,3.1886,3.1909,3.1904,3.1926,3.1927,3.192,3.199,3.2002,3.2044,3.1965,3.2167,3.2172,3.2178,3.2236,3.2248,3.2258,0,0,0,0,0,3.1763,3.1835,3.182,3.1833,3.1895,3.1949,3.1956,3.1947,3.1913,3.1947,3.1952,3.1927,3.2033,3.1997,3.201,3.2055,3.2164,3.2171,3.2177,3.2231,3.2246,3.2258,0,0,0,0,0,0,3.1821,3.1837,3.1821,3.1902,3.1924,3.194,3.1983,3.1963,3.1996,3.1989,3.1975,3.1981,3.2049,3.2059,3.2018,3.2138,3.2093,3.2103,3.2129,3.2143,3.2154,3.2149,3.1969,0,0,0,0,0,3.1843,3.1886,3.1898,3.1968,3.198,3.1979,3.2003,3.1993,3.2015,3.2024,3.2034,3.2057,3.2094,3.212,3.2156,3.2238,3.224,3.2275,3.2286,3.2295,3.2302,3.2342,3.2356,3.2203,3.2203,3.2203,0,0,3.189,3.1904,3.1932,3.198,3.1996,3.2038,3.1988,3.2037,3.2067,3.2032,3.2093,3.2101,3.2125,3.2198,3.2231,3.2208,3.2345,3.2303,3.2311,3.2313,3.235,3.2364,3.2377,3.2208,3.2207,3.2206,0,0,3.1995,3.2012,3.2069,3.2085,3.211,3.2108,3.2122,3.2141,3.2144,3.2206,3.2179,3.2215,3.2282,3.2298,3.2316,3.2423,3.2399,3.2435,3.2492,3.2531,3.2543,3.2553,3.2587,3.26,3.2443,3.2444,3.2444,0,3.2049,3.2113,3.2101,3.215,3.217,3.2139,3.2196,3.2213,3.2248,3.2261,3.2236,3.2316,3.233,3.2404,3.243,3.2446,3.2459,3.2431,3.2542,3.2552,3.2562,3.2594,3.2608,3.2447,3.2447,3.2447,3.2446,0,3.2176,3.2221,3.2264,3.2296,3.2322,3.2375,3.2369,3.2396,3.2384,3.2385,3.2445,3.2461,3.2497,3.2514,3.2504,3.2586,3.257,3.2544,3.2498,3.258,3.261,3.2623,3.2453,3.2452,3.245,3.2449,0,0,3.232,3.2343,3.2359,3.2371,3.2394,3.2427,3.2477,3.2512,3.2533,3.2558,3.2597,3.2653,3.2627,3.2646,3.2637,3.2671,3.2749,3.264,3.264,3.2656,3.2835,3.2853,3.2867,3.2735,3.2737,3.2739,3.2832,0,3.2423,3.2509,3.2498,3.258,3.2618,3.2588,3.2631,3.2648,3.265,3.2682,3.2684,3.2721,3.2687,3.2698,3.273,3.2733,3.2785,3.2727,3.2768,3.277,3.276,3.2884,3.2903,3.299,3.2844,3.2846,3.2848,0,3.2554,3.2581,3.2666,3.2678,3.2694,3.2733,3.2761,3.2793,3.2811,3.281,3.283,3.2813,3.286,3.2815,3.2878,3.2839,3.2856,3.2859,3.2862,3.2863,3.2812,3.2884,3.3018,3.3029,3.2867,3.2865,3.2864,0,3.2644,3.2702,3.2759,3.2771,3.2789,3.2816,3.2824,3.284,3.2859,3.2884,3.2896,3.2927,3.2943,3.2967,3.2958,3.2926,3.3021,3.2976,3.3019,3.3019,3.3038,3.3036,3.3172,3.3055,3.3055,3.3055,3.3054,0,3.2758,3.281,3.2799,3.2834,3.289,3.2877,3.2933,3.2938,3.2951,3.2985,3.2962,3.2994,3.2982,3.3012,3.3006,3.3057,3.3066,3.3064,3.3061,3.3064,3.3063,3.3072,3.3064,3.3058,3.3057,3.3057,3.3056,0,3.2868,3.2863,3.2922,3.2933,3.2937,3.2977,3.2986,3.3017,3.3016,3.3059,3.3068,3.3066,3.3101,3.3095,3.3134,3.3129,3.3191,3.3183,3.3185,3.3181,3.3223,3.3217,3.3366,3.3383,3.3259,3.326,3.3261,0,3.2939,3.2978,3.2991,3.3011,3.3021,3.3055,3.3074,3.3062,3.3083,3.3104,3.3133,3.3165,3.319,3.3246,3.3248,3.3276,3.3266,3.3316,3.327,3.327,3.3261,3.3258,3.326,3.3324,3.3326,3.3327,3.3328,0,3.3064,3.3058,3.3087,3.3114,3.3137,3.3158,3.3177,3.3195,3.3184,3.3208,3.3242,3.3261,3.3299,3.333,3.3356,3.3364,3.3343,3.3342,3.3353,3.3355,3.3352,3.335,3.3206,3.3338,3.3337,3.3337,3.3336,3.3336,3.3153,3.3184,3.3197,3.3229,3.3241,3.3258,3.3287,3.3288,3.3316,3.3345,3.3337,3.3375,3.3388,3.3421,3.3431,3.346,3.3441,3.3457,3.3461,3.3464,3.3467,3.3351,3.3465,3.3465,3.3464,3.3464,3.3464,0,3.3273,3.3279,3.3308,3.3333,3.3357,3.3336,3.3354,3.3375,3.3409,3.3423,3.3447,3.3485,3.3514,3.3517,3.3544,3.3566,3.3557,3.3573,3.3569,3.357,3.3484,3.3471,3.358,3.3579,3.3579,3.3579,3.3579,3.3579,3.3338,3.3388,3.3383,3.3438,3.3444,3.348,3.3492,3.3506,3.3517,3.3559,3.3583,3.3585,3.3594,3.3621,3.3645,3.3646,3.3655,3.3674,3.367,3.3589,3.3577,3.3566,3.3553,3.3677,3.3677,3.3753,3.3754,3.3754]}]]